When you browse on this site, cookies collect data to enhance your experience and personalize the content and advertising you see.
Visit our Privacy Policy to learn more. By continuing to use the site, you agree to this use of cookies and data.
  • In Romania
  • List of Countries
  • For 7 days
  • Water Temperature
  • Weather Map
  • Weather Widgets
  • user-avatar
    Login

    Hourly Weather Innsbruck

    Today, 19 October, Saturday

    Time Temperature Precipitation Wind Pressure Humidity
    00:00 +2°C° 0 mm 2 mps 594 mmHg 91%
    01:00 +2°C° 0 mm 2 mps 594 mmHg 92%
    02:00 +2°C° 0.1 mm 2 mps 594 mmHg 92%
    03:00 +2°C° 0.1 mm 2 mps 593 mmHg 92%
    04:00 +2°C° 0.1 mm 2 mps 593 mmHg 92%
    05:00 +2°C° 0.1 mm 2 mps 593 mmHg 92%
    06:00 +1°C° 0.1 mm 3 mps 593 mmHg 92%
    07:00 +1°C° 0.1 mm 3 mps 593 mmHg 92%
    08:00 +3°C° 0 mm 3 mps 593 mmHg 87%
    09:00 +4°C° 0 mm 3 mps 594 mmHg 82%
    10:00 +7°C° 0 mm 3 mps 595 mmHg 77%
    11:00 +7°C° 0 mm 3 mps 595 mmHg 76%
    12:00 +8°C° 0 mm 3 mps 595 mmHg 74%
    13:00 +8°C° 0 mm 3 mps 595 mmHg 72%
    14:00 +8°C° 0 mm 3 mps 595 mmHg 75%
    15:00 +7°C° 0 mm 3 mps 595 mmHg 77%
    16:00 +7°C° 0 mm 3 mps 594 mmHg 79%
    17:00 +5°C° 0 mm 3 mps 594 mmHg 83%
    18:00 +4°C° 0 mm 3 mps 594 mmHg 87%
    19:00 +3°C° 0 mm 3 mps 594 mmHg 91%
    20:00 +3°C° 0 mm 3 mps 594 mmHg 90%
    21:00 +3°C° 0 mm 3 mps 594 mmHg 90%
    22:00 +3°C° 0 mm 3 mps 594 mmHg 90%
    23:00 +3°C° 0 mm 3 mps 594 mmHg 90%

    Tomorrow, 20 October, Sunday

    Time Temperature Precipitation Wind Pressure Humidity
    00:00 +3°C° 0 mm 3 mps 594 mmHg 90%
    01:00 +3°C° 0 mm 3 mps 594 mmHg 90%
    02:00 +3°C° 0 mm 3 mps 594 mmHg 90%
    03:00 +3°C° 0 mm 3 mps 594 mmHg 90%
    04:00 +3°C° 0 mm 4 mps 594 mmHg 90%
    05:00 +3°C° 0 mm 4 mps 594 mmHg 90%
    06:00 +3°C° 0 mm 4 mps 594 mmHg 89%
    07:00 +3°C° 0 mm 4 mps 594 mmHg 89%
    08:00 +4°C° 0 mm 4 mps 595 mmHg 85%
    09:00 +6°C° 0 mm 4 mps 595 mmHg 80%
    10:00 +7°C° 0 mm 4 mps 596 mmHg 75%
    11:00 +7°C° 0 mm 4 mps 596 mmHg 74%
    12:00 +8°C° 0 mm 4 mps 596 mmHg 72%
    13:00 +8°C° 0 mm 4 mps 596 mmHg 70%
    14:00 +8°C° 0 mm 4 mps 596 mmHg 73%
    15:00 +7°C° 0 mm 4 mps 595 mmHg 76%
    16:00 +8°C° 0 mm 3 mps 595 mmHg 79%
    17:00 +6°C° 0 mm 4 mps 595 mmHg 82%
    18:00 +5°C° 0 mm 4 mps 595 mmHg 85%
    19:00 +5°C° 0 mm 4 mps 595 mmHg 88%
    20:00 +5°C° 0 mm 4 mps 595 mmHg 88%
    21:00 +5°C° 0 mm 4 mps 596 mmHg 89%
    22:00 +5°C° 0 mm 3 mps 596 mmHg 90%
    23:00 +5°C° 0 mm 3 mps 596 mmHg 90%

    Day after tomorrow, 21 October, Monday

    Time Temperature Precipitation Wind Pressure Humidity
    00:00 +4°C° 0 mm 3 mps 596 mmHg 90%
    01:00 +4°C° 0 mm 3 mps 596 mmHg 91%
    02:00 +4°C° 0 mm 3 mps 596 mmHg 91%
    03:00 +4°C° 0 mm 3 mps 596 mmHg 92%
    04:00 +4°C° 0 mm 3 mps 596 mmHg 92%
    05:00 +4°C° 0.2 mm 3 mps 596 mmHg 91%
    06:00 +4°C° 0.2 mm 3 mps 596 mmHg 91%
    07:00 +4°C° 0.2 mm 3 mps 597 mmHg 90%
    08:00 +5°C° 0 mm 3 mps 597 mmHg 86%
    09:00 +7°C° 0 mm 3 mps 598 mmHg 83%
    10:00 +8°C° 0 mm 3 mps 599 mmHg 79%
    11:00 +9°C° 0 mm 3 mps 599 mmHg 77%
    12:00 +9°C° 0 mm 3 mps 600 mmHg 75%
    13:00 +10°C° 0 mm 3 mps 600 mmHg 73%
    14:00 +9°C° 0 mm 3 mps 600 mmHg 78%
    15:00 +9°C° 0 mm 2 mps 599 mmHg 83%
    16:00 +8°C° 0 mm 2 mps 599 mmHg 87%
    17:00 +7°C° 0.1 mm 2 mps 599 mmHg 90%
    18:00 +6°C° 0.1 mm 2 mps 599 mmHg 93%
    19:00 +6°C° 0.1 mm 2 mps 599 mmHg 96%
    20:00 +5°C° 0 mm 2 mps 599 mmHg 96%
    21:00 +5°C° 0 mm 2 mps 599 mmHg 96%
    22:00 +5°C° 0 mm 2 mps 599 mmHg 97%
    23:00 +5°C° 0.1 mm 2 mps 599 mmHg 96%

    22 October, Tuesday

    Time Temperature Precipitation Wind Pressure Humidity
    00:00 +5°C° 0.1 mm 2 mps 599 mmHg 96%
    01:00 +6°C° 0.1 mm 1 mps 599 mmHg 96%
    02:00 +6°C° 0 mm 1 mps 599 mmHg 96%
    03:00 +6°C° 0 mm 1 mps 599 mmHg 96%
    04:00 +6°C° 0 mm 1 mps 599 mmHg 96%
    05:00 +6°C° 0 mm 1 mps 599 mmHg 96%
    06:00 +5°C° 0 mm 1 mps 599 mmHg 95%
    07:00 +4°C° 0 mm 2 mps 599 mmHg 95%
    08:00 +6°C° 0 mm 2 mps 600 mmHg 90%
    09:00 +7°C° 0 mm 2 mps 600 mmHg 85%
    10:00 +9°C° 0 mm 2 mps 601 mmHg 79%
    11:00 +9°C° 0 mm 2 mps 601 mmHg 78%
    12:00 +10°C° 0 mm 2 mps 602 mmHg 76%
    13:00 +10°C° 0 mm 2 mps 602 mmHg 74%
    14:00 +9°C° 0 mm 2 mps 601 mmHg 77%
    15:00 +9°C° 0 mm 2 mps 601 mmHg 80%
    16:00 +8°C° 0 mm 2 mps 600 mmHg 84%
    17:00 +7°C° 0 mm 2 mps 600 mmHg 85%
    18:00 +7°C° 0 mm 2 mps 599 mmHg 87%
    19:00 +6°C° 0 mm 2 mps 599 mmHg 89%
    20:00 +6°C° 0 mm 2 mps 599 mmHg 88%
    21:00 +5°C° 0 mm 3 mps 599 mmHg 88%
    22:00 +4°C° 0 mm 3 mps 599 mmHg 87%
    23:00 +4°C° 0 mm 3 mps 599 mmHg 87%

    23 October, Wednesday

    Time Temperature Precipitation Wind Pressure Humidity
    00:00 +4°C° 0 mm 3 mps 599 mmHg 88%
    01:00 +4°C° 0 mm 3 mps 598 mmHg 88%
    02:00 +4°C° 0 mm 3 mps 598 mmHg 88%
    03:00 +4°C° 0 mm 3 mps 598 mmHg 87%
    04:00 +4°C° 0 mm 3 mps 598 mmHg 87%
    05:00 +3°C° 0 mm 3 mps 598 mmHg 87%
    06:00 +3°C° 0 mm 3 mps 598 mmHg 86%
    07:00 +3°C° 0 mm 3 mps 597 mmHg 86%
    08:00 +6°C° 0 mm 2 mps 598 mmHg 78%
    09:00 +8°C° 0 mm 2 mps 599 mmHg 71%
    10:00 +10°C° 0 mm 2 mps 600 mmHg 63%
    11:00 +12°C° 0 mm 2 mps 600 mmHg 58%
    12:00 +13°C° 0 mm 2 mps 600 mmHg 54%
    13:00 +13°C° 0 mm 3 mps 600 mmHg 49%
    14:00 +12°C° 0 mm 3 mps 600 mmHg 53%
    15:00 +11°C° 0 mm 3 mps 599 mmHg 57%
    16:00 +10°C° 0 mm 3 mps 599 mmHg 61%
    17:00 +9°C° 0 mm 3 mps 598 mmHg 67%
    18:00 +7°C° 0 mm 3 mps 597 mmHg 72%
    19:00 +4°C° 0 mm 3 mps 596 mmHg 78%
    20:00 +4°C° 0 mm 3 mps 596 mmHg 78%
    21:00 +4°C° 0 mm 3 mps 596 mmHg 78%
    22:00 +4°C° 0 mm 3 mps 596 mmHg 78%
    23:00 +4°C° 0 mm 3 mps 596 mmHg 77%

    24 October, Thursday

    Time Temperature Precipitation Wind Pressure Humidity
    00:00 +4°C° 0 mm 3 mps 596 mmHg 77%
    01:00 +3°C° 0 mm 4 mps 596 mmHg 76%
    02:00 +4°C° 0 mm 3 mps 596 mmHg 74%
    03:00 +4°C° 0 mm 3 mps 596 mmHg 72%
    04:00 +4°C° 0 mm 3 mps 596 mmHg 70%
    05:00 +4°C° 0 mm 3 mps 596 mmHg 69%
    06:00 +4°C° 0 mm 3 mps 596 mmHg 68%
    07:00 +4°C° 0 mm 3 mps 596 mmHg 67%
    08:00 +7°C° 0 mm 3 mps 597 mmHg 61%
    09:00 +9°C° 0 mm 3 mps 598 mmHg 56%
    10:00 +12°C° 0 mm 2 mps 599 mmHg 51%
    11:00 +13°C° 0 mm 2 mps 599 mmHg 49%
    12:00 +14°C° 0 mm 2 mps 600 mmHg 47%
    13:00 +15°C° 0 mm 2 mps 600 mmHg 45%
    14:00 +14°C° 0 mm 2 mps 600 mmHg 50%
    15:00 +13°C° 0 mm 2 mps 599 mmHg 55%
    16:00 +12°C° 0 mm 2 mps 599 mmHg 60%
    17:00 +10°C° 0 mm 2 mps 598 mmHg 60%
    18:00 +9°C° 0 mm 2 mps 598 mmHg 60%
    19:00 +7°C° 0 mm 2 mps 598 mmHg 60%
    20:00 +7°C° 0 mm 2 mps 598 mmHg 60%
    21:00 +7°C° 0 mm 2 mps 598 mmHg 59%
    22:00 +7°C° 0 mm 2 mps 598 mmHg 59%
    23:00 +6°C° 0 mm 2 mps 598 mmHg 60%
    Show more